Flag for Germany Weather past 2 weeks in Dorsten, North Rhine-Westphalia, Germany

Now
45 °F

Overcast.


Feels Like: 44 °F
Forecast: 37 / 47 °F
Wind: 3 mph from West

Location: Essen

Current Time: Mar 5, 2015 at 4:06:51 PM

Latest Report: Mar 5, 2015 at 3:00 PM


Visibility: 25 mi

Pressure: 30.63 "Hg

Humidity: 67%

Dew point: 35 °F

Location of DorstenLocation

Historic Weather in Dorsten — Graph

°F

Dorsten temperature yesterday

Maximum temperature yesterday: 43 °F (at 4:00 PM)
Minimum temperature yesterday: 34 °F (at 7:00 AM)
Average temperature yesterday: 38 °F

Past Weeks' High & Low Weather Summary

 TemperatureHumidityPressure
High50 °F (Mar 1, 2:00 PM)100% (Feb 22, 3:00 AM)30.66 "Hg (Feb 22, 3:00 AM)
Low31 °F (Feb 28, 5:00 AM)50% (Feb 28, 5:00 PM)29.35 "Hg (Feb 21, 4:00 AM)
Average39 °F85%29.92 "Hg
* Reported Feb 18 4:00 PM — Mar 5 3:00 PM, Dorsten, Weather by CustomWeather, © 2015

Note: Actual official high and low records may vary slightly from our data, if they occured in-between our weather recording intervals... More about our weather records

Advertising

Dorsten weather history for previous 24 hours

 ConditionsComfort  
Time TempWeatherWind HumidityBarometerVisibility
3:00 PM
Thu, Mar 5
45 °FOvercast.3 mph67%30.63 "Hg25 mi
2:00 PM43 °FOvercast.3 mph75%30.63 "Hg11 mi
1:00 PM42 °FOvercast.3 mph83%30.66 "Hg8 mi
12:00 PM39 °FFog.2 mph95%30.66 "Hg3 mi
11:00 AM38 °FLow clouds.2 mph100%30.66 "Hg1 mi
10:00 AM37 °FLow clouds.2 mph100%30.66 "Hg1 mi
9:00 AM37 °FLow clouds.2 mph100%30.65 "Hg1 mi
8:00 AM37 °FFog.2 mph100%30.63 "Hg2 mi
7:00 AM37 °FFog.3 mph100%30.62 "Hg2 mi
6:00 AM37 °FFog.2 mph99%30.61 "Hg4 mi
5:00 AM36 °FPassing clouds.1 mph95%30.59 "Hg11 mi
3:00 AM39 °FOvercast.2 mph86%30.56 "Hg19 mi
2:00 AM39 °FOvercast.3 mph89%30.54 "Hg17 mi
1:00 AM39 °FOvercast.3 mph88%30.51 "Hg16 mi
12:00 AM40 °FLow clouds.5 mph86%30.48 "Hg16 mi
11:00 PM
Wed, Mar 4
40 °FLow clouds.3 mph90%30.45 "Hg11 mi
10:00 PM39 °FOvercast.5 mph90%30.42 "Hg17 mi
9:00 PM38 °FOvercast.3 mph95%30.39 "Hg12 mi
8:00 PM38 °FLow clouds.3 mph95%30.38 "Hg11 mi
7:00 PM37 °FDrizzle. Low clouds.5 mph90%30.35 "Hg19 mi
6:00 PM41 °FOvercast.5 mph73%30.33 "Hg25 mi
5:00 PM42 °FOvercast.5 mph75%30.30 "Hg19 mi
4:00 PM43 °FOvercast.5 mph71%30.27 "Hg28 mi
Weather by CustomWeather, © 2015

See weather overviewHow to use our weather pages